Content
SEND FEEDBACK

Daily
Averages
Monthly
Summary
Bosnia and Herzegovina

ILIDZA, BOSNIA AND HERZEGOVINA


Home > Europe > Bosnia and Herzegovina
Elevation: 1677 feet     Latitude: 43 49N     Longitude: 018 19E

WEATHER
 
SELECT A DAY
Number of Records: 178,096;   Date Range: 2/20/97 - 9/15/14
 
SHARE

PRINT THIS DATA

[ ← Previous Day ]
WEATHER ALMANAC - MAY 14, 2014
[ Next Day → ]
[ °C ]   °F
Weather ElementAverageHighLow
Temperature44.8 °F50 °F (1:00 am)39.2 °F (8:00 am)
Dewpoint43.3 °F50 °F (1:00 am)39.2 °F (7:30 am)
Humidity94.6 %100 % (1:00 am)87 % (3:30 pm)
Barometer29.84 in29.92 in (10:30 pm)29.80 in (5:00 am)
Wind Speed8 mph15 mph (11:00 pm)
Weather ElementAverage
Visibility3.8 mi
Wind DirectionSSW (216.5 °)

Weather ElementTotal
Precipitation---
Heating Degree Days20.4 (Base 65)
Averaged from 40 records on May 14, 2014
WEATHER CONDITIONS BREAKOUT
WIND DIRECTION BREAKOUT
WEATHER BY HOUR - MAY 14, 2014
[ °C ]   °F
Local TimeTemperatureDewpointHumidityBarometerVisibilityWind DirectionWind SpeedGust SpeedPrecipitationEventsConditions
1:00 AM50.0 °F50.0 °F100 %29.83 in1.9 miWest (270°)4.6 mphRainHeavy Rain
2:00 AM50.0 °F50.0 °F100 %29.83 in1.9 miNW (310°)3.5 mphRainHeavy Rain
3:00 AM48.2 °F48.2 °F100 %29.83 in1.9 miWNW (300°)4.6 mphRainHeavy Rain
4:00 AM46.4 °F46.4 °F100 %29.83 in1.9 miNW (310°)6.9 mphRainHeavy Rain
5:00 AM44.6 °F44.6 °F100 %29.80 in3.1 miWest (270°)6.9 mphRain-ThunderstormThunderstorms and Rain
5:30 AM42.8 °F42.8 °F100 %29.80 in3.1 miWSW (250°)4.6 mphRainRain
6:00 AM42.8 °F42.8 °F100 %29.80 in3.1 miVariable2.3 mphRainRain
6:30 AM42.8 °F41.0 °F93 %29.80 in3.7 miEast (100°)3.5 mphRainRain
7:00 AM41.0 °F41.0 °F100 %29.80 in3.7 miESE (120°)5.8 mphRainRain
7:30 AM41.0 °F39.2 °F93 %29.80 in3.7 miESE (110°)4.6 mphRainRain
8:00 AM39.2 °F39.2 °F100 %29.80 in3.7 miESE (120°)4.6 mphRainRain
8:30 AM39.2 °F39.2 °F100 %29.80 in3.7 miEast (100°)3.5 mphRainRain
9:00 AM41.0 °F39.2 °F93 %29.83 in3.7 miVariable2.3 mphRainRain
9:30 AM41.0 °F41.0 °F100 %29.83 in3.7 miVariable2.3 mphRainRain
10:00 AM41.0 °F41.0 °F100 %29.83 in3.7 miVariable2.3 mphRainRain
10:30 AM42.8 °F41.0 °F93 %29.83 in3.1 miVariable2.3 mphRainRain
11:00 AM42.8 °F42.8 °F100 %29.83 in3.1 miVariable2.3 mphRainRain
11:30 AM42.8 °F42.8 °F100 %29.83 in3.1 miVariable1.2 mphRainRain
12:00 PM46.4 °F46.4 °F100 %29.83 in3.1 miWNW (300°)4.6 mphRainRain
12:30 PM46.4 °F44.6 °F93 %29.83 in3.1 miWest (280°)9.2 mphRainRain
1:00 PM46.4 °F44.6 °F93 %29.83 in4.3 miWest (270°)9.2 mphRainRain
1:30 PM46.4 °F44.6 °F93 %29.83 in4.3 miWest (270°)9.2 mphRainLight Rain
2:00 PM46.4 °F44.6 °F93 %29.83 in4.3 miWest (270°)10.4 mphRainLight Rain
2:30 PM46.4 °F44.6 °F93 %29.83 in4.3 miWest (270°)10.4 mphRainLight Rain
3:00 PM46.4 °F44.6 °F93 %29.83 in4.3 miWest (280°)11.5 mphRainLight Rain
3:30 PM48.2 °F44.6 °F87 %29.83 in5.0 miWNW (290°)13.8 mphRainLight Rain
4:00 PM46.4 °F44.6 °F93 %29.83 in6.2 miWNW (300°)13.8 mphRainLight Rain
4:30 PM46.4 °F42.8 °F87 %29.83 in6.2 miWNW (300°)13.8 mphRainLight Rain
5:30 PM46.4 °F42.8 °F87 %29.86 in4.3 miWNW (300°)13.8 mphRainLight Rain
6:00 PM46.4 °F42.8 °F87 %29.86 in4.3 miWNW (300°)13.8 mphRainLight Rain
6:30 PM46.4 °F42.8 °F87 %29.86 in5.0 miWNW (290°)11.5 mphRainRain
7:00 PM46.4 °F42.8 °F87 %29.86 in5.0 miWNW (290°)11.5 mphRainLight Rain
7:30 PM44.6 °F42.8 °F93 %29.86 in5.0 miWNW (290°)10.4 mphRainLight Rain
8:00 PM46.4 °F44.6 °F93 %29.86 in4.3 miWNW (300°)10.4 mphRainRain
8:30 PM46.4 °F42.8 °F87 %29.89 in4.3 miWNW (300°)11.5 mphRainRain
9:00 PM44.6 °F42.8 °F93 %29.89 in4.3 miWNW (300°)11.5 mphRainRain
9:30 PM44.6 °F44.6 °F100 %29.89 in3.7 miWNW (300°)8.1 mphRainRain
10:00 PM44.6 °F42.8 °F93 %29.89 in3.7 miWNW (300°)13.8 mphRainRain
10:30 PM44.6 °F42.8 °F93 %29.92 in4.3 miWNW (300°)12.7 mphRainRain
11:00 PM44.6 °F41.0 °F87 %29.92 in4.3 miWNW (300°)15.0 mphRainRain
Hourly data recorded from LQSA, located miles away from Ilidza, Bosnia and Herzegovina







STORIES FROM OUR PARTNERS